Погода в Прибрежном

Россия / Республика Крым     45°08′42″N   33°31′13″E
темп.,
°C
ветер,
м/с
пор.,
м/с
влажн.,
%
обл.,
%
осадки,
мм/ч
давл.,
гПа
погр.,
м
21 апреля, ср
ср2100:00+9зюз61189100 0.0 1013385
03:00+9зюз4891100 0.2 1014182
06:00+9зюз4688100 0.3 1015115
09:00+12юз677376 0.6 1016498
12:00+13юз77705 0.6 1017875
15:00+13юз67736 0.9 1018847
18:00+12юз56775 0.1 1019490
21:00+9ююз47910 0.1 1020158
22 апреля, чт
чт2200:00+9ююз35915 0.0 1020105
03:00+9ююз47925 0.0 1021171
06:00+9ю45924 0.0 102197
09:00+12ююз56750 0.0 1022492
12:00+13ююз56680 0.0 1023648
15:00+13юз67671 0.0 1023624
18:00+12юз56730 0.0 1022377
21:00+10ююз46860 0.0 1023112
23 апреля, пт
пт2300:00+9ю47880 0.0 1022136
03:00+9ююз47880 0.0 1022149
06:00+9ю3486100 0.0 102263
09:00+12ююз466476 0.0 1021357
12:00+15ююз4656100 0.0 1020610
15:00+14юз71064100 0.0 1019392
18:00+12юз71269100 0.0 1018376
21:00+11юз5117574 0.0 1018258
24 апреля, сб
сб2400:00+10юз613815 0.0 1018404
03:00+10юз5890100 0.0 1018450
06:00+8ссз479398 0.0 1019276
09:00+11ссз45703 0.0 1020775
12:00+13сз34483 0.0 10211208
15:00+14з66445 0.0 10201559
18:00+12з665446 0.0 1021879
21:00+8сз3576100 0.0 1022160
25 апреля, вс
вс2500:00+7ссз2280100 0.0 102247
03:00+6ссв2282100 0.0 102138
06:00+6ссв2380100 0.0 102161
09:00+9ссв3453100 0.0 1021435
12:00+13с3437100 0.0 10201192
15:00+13с4334100 0.0 10191199
18:00+12ссв3336100 0.0 10191025
21:00+8св33489 0.0 101928